Total_Precipitation_Accumulation
0.00 0.00 0.00 0.00 0.01 0.02 0.02 0.04 0.07 0.11 0.14 0.15 0.18 0.19 0.21 0.31 0.64 1.23 0.67 0.35 0.19 0.08 0.06 0.05 0.05 0.05 0.07 0.10 0.13 0.15 0.13 0.15 0.17 0.18 0.18 0.15 0.11 0.10 0.10 0.10 0.14 0.19 0.21 0.19 0.16 0.14 0.14 0.15 0.12
0.00 0.00 0.00 0.01 0.01 0.03 0.05 0.08 0.11 0.13 0.17 0.18 0.24 0.24 0.23 0.25 0.28 0.24 0.28 0.27 0.18 0.09 0.06 0.04 0.06 0.06 0.07 0.07 0.11 0.17 0.16 0.15 0.15 0.16 0.16 0.14 0.13 0.13 0.13 0.13 0.15 0.18 0.18 0.14 0.11 0.11 0.11 0.12 0.11
0.00 0.00 0.00 0.01 0.02 0.04 0.08 0.12 0.16 0.16 0.16 0.21 0.33 0.45 0.44 0.42 0.42 0.30 0.26 0.19 0.14 0.08 0.06 0.07 0.08 0.09 0.10 0.09 0.08 0.14 0.17 0.18 0.18 0.18 0.17 0.17 0.17 0.16 0.15 0.16 0.18 0.18 0.18 0.19 0.18 0.15 0.12 0.11 0.11
0.00 0.00 0.01 0.01 0.02 0.05 0.11 0.17 0.21 0.20 0.20 0.19 0.28 0.55 0.50 0.42 0.46 0.44 0.27 0.21 0.19 0.13 0.09 0.10 0.10 0.11 0.14 0.14 0.14 0.15 0.17 0.19 0.21 0.21 0.21 0.20 0.20 0.19 0.17 0.17 0.18 0.19 0.20 0.22 0.25 0.20 0.13 0.11 0.12
0.00 0.01 0.01 0.02 0.03 0.07 0.11 0.17 0.21 0.23 0.28 0.28 0.31 0.61 0.63 0.52 0.57 0.67 0.54 0.37 0.30 0.23 0.21 0.16 0.15 0.14 0.15 0.17 0.22 0.25 0.20 0.21 0.24 0.24 0.22 0.22 0.22 0.21 0.20 0.20 0.19 0.21 0.24 0.26 0.22 0.17 0.12 0.11 0.12
0.00 0.00 0.01 0.01 0.03 0.06 0.13 0.18 0.20 0.29 0.35 0.41 0.51 0.85 1.08 0.95 0.90 0.96 0.92 0.57 0.43 0.35 0.30 0.29 0.23 0.16 0.17 0.21 0.24 0.30 0.32 0.32 0.31 0.29 0.27 0.27 0.25 0.24 0.25 0.26 0.26 0.29 0.33 0.30 0.20 0.13 0.11 0.10 0.11
0.00 0.00 0.01 0.02 0.03 0.09 0.14 0.22 0.23 0.33 0.48 0.60 0.79 1.18 1.30 1.28 1.26 1.05 1.03 0.78 0.48 0.45 0.47 0.45 0.32 0.28 0.29 0.31 0.31 0.35 0.40 0.40 0.40 0.40 0.39 0.35 0.34 0.33 0.32 0.32 0.32 0.35 0.36 0.29 0.21 0.16 0.13 0.12 0.12
0.00 0.00 0.00 0.02 0.06 0.12 0.19 0.23 0.29 0.38 0.58 0.74 0.86 1.25 1.43 1.40 1.22 1.10 0.97 0.97 0.73 0.67 0.67 0.67 0.68 0.61 0.48 0.45 0.50 0.49 0.53 0.51 0.44 0.41 0.43 0.42 0.38 0.35 0.35 0.32 0.34 0.35 0.35 0.31 0.28 0.27 0.22 0.17 0.14
0.00 0.00 0.00 0.02 0.06 0.13 0.22 0.26 0.32 0.38 0.63 0.86 0.80 0.91 1.29 1.13 1.23 1.45 1.28 1.19 1.04 0.89 0.87 0.80 0.87 0.85 0.70 0.61 0.56 0.64 0.67 0.64 0.58 0.49 0.48 0.46 0.53 0.58 0.53 0.45 0.49 0.48 0.47 0.44 0.42 0.38 0.32 0.27 0.21
0.00 0.00 0.01 0.02 0.04 0.11 0.20 0.30 0.40 0.44 0.57 0.78 0.89 0.84 1.00 1.11 1.17 1.40 1.66 1.45 1.25 1.09 1.07 1.03 0.91 0.84 0.81 0.73 0.75 0.83 0.79 0.76 0.69 0.74 0.71 0.74 1.01 1.12 0.92 0.96 0.88 0.81 0.74 0.65 0.57 0.50 0.44 0.35 0.28
0.01 0.01 0.01 0.02 0.04 0.14 0.21 0.29 0.33 0.43 0.62 0.78 0.96 1.01 1.01 1.15 1.36 1.46 1.84 1.77 1.58 1.48 1.28 1.34 1.22 1.05 1.23 1.32 1.16 1.13 1.11 1.11 1.03 1.16 1.19 1.26 1.40 1.39 1.33 1.45 1.28 1.18 1.08 1.00 0.99 0.74 0.59 0.54 0.55
0.01 0.01 0.02 0.03 0.06 0.13 0.20 0.23 0.36 0.52 0.92 0.99 1.27 1.51 1.49 1.35 1.60 1.71 2.07 2.02 1.98 1.96 1.75 1.63 1.64 1.54 1.63 1.91 1.74 1.52 1.39 1.41 1.43 1.54 1.50 1.74 1.83 1.78 1.72 1.78 1.68 1.66 1.61 1.61 1.46 1.24 1.05 0.97 0.83
0.00 0.01 0.01 0.02 0.06 0.15 0.23 0.28 0.40 0.63 0.82 0.92 1.29 1.66 1.71 1.56 1.50 1.67 2.29 2.14 2.12 2.19 2.10 1.86 1.91 1.94 2.05 2.25 2.11 1.91 1.96 1.76 1.70 1.87 1.84 1.96 1.99 1.96 2.04 1.96 1.95 1.85 1.82 1.78 1.62 1.52 1.48 1.39 1.24
0.01 0.01 0.03 0.04 0.05 0.13 0.24 0.32 0.40 0.56 0.50 0.60 0.94 1.19 1.25 1.37 1.45 1.57 1.97 2.11 2.07 2.13 2.23 2.29 2.23 2.23 2.12 2.20 2.19 2.02 1.95 2.05 1.89 1.86 1.89 1.87 1.95 2.17 2.23 2.22 2.20 2.15 2.10 2.17 1.97 1.76 1.85 1.71 1.63
0.01 0.02 0.05 0.06 0.09 0.17 0.25 0.39 0.58 0.75 0.63 0.67 0.85 0.88 1.06 1.27 1.56 1.78 1.96 2.09 2.12 2.10 2.15 2.29 2.29 2.34 2.26 2.22 2.24 2.18 2.08 2.07 2.13 2.17 2.21 2.04 1.99 2.25 2.34 2.52 2.48 2.42 2.35 2.39 2.34 2.18 2.21 2.00 1.88
0.02 0.04 0.07 0.11 0.10 0.14 0.25 0.57 0.81 0.85 0.84 0.82 0.86 0.89 0.99 1.21 1.49 1.64 1.63 1.76 1.79 1.77 1.92 2.05 2.15 2.21 2.44 2.54 2.63 2.50 2.60 2.59 2.51 2.38 2.38 2.25 2.21 2.37 2.59 2.72 2.72 2.73 2.63 2.70 2.79 2.72 2.53 2.39 2.21
0.03 0.06 0.08 0.15 0.11 0.11 0.23 0.60 0.83 0.78 0.88 0.93 0.88 0.79 0.80 0.97 1.19 1.35 1.41 1.50 1.56 1.55 1.85 2.03 2.17 2.37 2.54 2.76 2.97 2.96 3.09 3.02 2.95 2.87 2.76 2.82 2.88 2.80 2.92 3.06 3.12 3.12 3.16 3.15 3.00 3.15 2.96 2.86 2.68
0.07 0.07 0.10 0.12 0.11 0.12 0.25 0.49 0.66 0.76 0.85 0.93 0.88 0.79 0.75 0.84 1.05 1.25 1.34 1.46 1.48 1.58 1.87 2.13 2.33 2.66 3.01 3.12 3.29 3.22 3.39 3.49 3.56 3.66 3.53 3.39 3.47 3.46 3.56 3.53 3.56 3.58 3.64 3.49 3.47 3.49 3.24 3.02 2.97
0.08 0.08 0.12 0.12 0.11 0.14 0.23 0.43 0.63 0.74 0.94 1.05 0.92 0.86 0.91 0.91 1.04 1.28 1.47 1.66 1.91 2.08 2.15 2.29 2.52 2.78 2.96 3.27 3.61 3.77 3.85 4.04 4.16 4.24 4.34 4.31 4.28 4.40 4.46 4.34 4.23 4.08 3.96 3.80 3.70 3.53 3.33 3.10 3.02
0.04 0.07 0.10 0.11 0.13 0.15 0.27 0.44 0.62 0.71 0.85 0.99 0.97 0.95 0.93 1.00 1.08 1.38 1.71 2.13 2.33 2.40 2.41 2.56 2.79 3.00 3.19 3.59 4.09 4.50 4.64 4.74 4.77 4.79 4.98 5.08 5.12 5.30 5.37 5.30 5.07 4.82 4.50 4.06 3.74 3.55 3.39 3.10 3.11
0.03 0.06 0.09 0.12 0.15 0.20 0.36 0.64 0.82 0.83 0.95 1.02 1.05 1.17 1.11 1.16 1.34 1.58 1.88 2.12 2.29 2.39 2.49 2.68 2.98 3.33 3.76 4.26 4.77 5.19 5.44 5.49 5.42 5.14 5.24 5.40 5.37 5.44 5.63 5.59 5.32 4.94 4.38 3.88 3.71 3.63 3.50 3.31 3.23
0.04 0.05 0.06 0.10 0.15 0.24 0.33 0.76 1.12 1.16 1.20 1.09 1.10 1.20 1.15 1.18 1.35 1.58 1.81 2.07 2.17 2.33 2.56 2.74 3.06 3.62 4.08 4.47 5.12 5.65 5.94 6.14 6.23 5.99 5.68 5.52 5.34 5.22 5.14 4.99 4.58 4.15 3.83 3.57 3.47 3.46 3.28 3.25 3.15
0.04 0.03 0.06 0.08 0.10 0.21 0.24 0.56 1.20 1.34 1.42 1.30 1.22 1.28 1.13 1.06 1.21 1.48 1.59 1.83 2.12 2.25 2.35 2.50 2.96 3.56 4.26 4.91 5.44 5.92 6.30 6.47 6.41 6.02 5.64 5.20 4.84 4.42 4.08 3.74 3.48 3.36 3.18 2.98 2.88 2.85 2.79 2.65 2.59
0.03 0.04 0.07 0.10 0.15 0.27 0.26 0.46 1.18 1.59 1.78 1.82 1.48 1.28 1.14 1.05 1.11 1.20 1.29 1.46 1.79 1.91 2.12 2.33 2.69 3.39 4.13 4.77 5.32 5.72 6.05 6.08 5.77 5.30 4.82 4.51 4.14 3.68 3.25 3.01 2.76 2.61 2.45 2.25 2.15 2.14 2.20 2.26 2.29
0.03 0.09 0.25 0.40 0.44 0.42 0.35 0.59 1.28 1.51 1.46 1.42 1.42 1.42 1.26 1.03 0.98 1.07 1.10 1.24 1.45 1.63 1.92 2.28 2.71 3.26 3.70 4.22 4.71 4.98 5.19 5.22 5.11 4.81 4.45 4.17 3.75 3.33 2.88 2.45 2.23 2.00 1.81 1.70 1.64 1.62 1.65 1.77 1.88
0.04 0.11 0.39 0.56 0.60 0.64 0.70 1.03 1.57 1.38 1.17 1.15 1.24 1.25 1.15 1.06 1.03 1.19 1.30 1.38 1.50 1.63 1.79 2.12 2.52 2.92 3.14 3.39 3.77 4.02 4.15 4.22 4.11 3.88 3.57 3.30 3.02 2.75 2.39 1.96 1.61 1.39 1.25 1.19 1.22 1.27 1.32 1.36 1.45
0.06 0.11 0.18 0.24 0.33 0.61 0.99 1.44 1.91 1.82 1.36 1.17 1.18 1.13 1.05 1.05 1.05 1.21 1.36 1.46 1.55 1.60 1.74 1.84 2.04 2.25 2.51 2.73 2.90 3.03 3.08 3.02 2.92 2.71 2.48 2.30 2.13 1.91 1.68 1.43 1.22 1.10 1.04 1.01 1.01 1.01 1.01 1.08 1.17
0.09 0.12 0.15 0.26 0.52 0.84 1.10 1.62 2.27 2.27 1.78 1.41 1.32 1.26 1.12 1.06 1.08 1.18 1.25 1.32 1.36 1.35 1.43 1.53 1.67 1.79 1.94 2.08 2.14 2.06 2.06 2.04 1.91 1.74 1.64 1.51 1.34 1.22 1.15 1.05 0.98 0.91 0.84 0.84 0.87 0.84 0.83 0.93 0.97
0.13 0.14 0.21 0.31 0.40 0.83 1.28 1.93 2.20 2.38 2.21 1.84 1.44 1.22 1.13 1.09 1.06 1.08 1.09 1.10 1.13 1.08 1.11 1.19 1.33 1.52 1.60 1.59 1.60 1.53 1.46 1.34 1.24 1.16 1.14 1.07 0.97 0.92 0.90 0.86 0.84 0.81 0.79 0.77 0.75 0.74 0.72 0.79 0.91
0.13 0.16 0.23 0.43 0.48 0.60 1.06 2.08 2.26 2.54 2.43 2.08 1.67 1.36 1.22 1.16 1.08 1.01 0.96 0.92 0.90 0.88 0.88 0.96 1.06 1.15 1.17 1.16 1.12 1.10 1.05 0.99 0.95 0.93 0.91 0.94 0.90 0.83 0.82 0.80 0.80 0.81 0.82 0.82 0.78 0.71 0.69 0.74 0.82